Tracking 19476 objects as of 17-Jan-2019
HD Live streaming from Space Station
objects crossing your sky now

MOLNIYA 1-86

Track MOLNIYA 1-86 now!
10-day predictions
MOLNIYA 1-86 is classified as:


NORAD ID: 22671
Int'l Code: 1993-035A
Perigee: 494.9 km
Apogee: 13,471.2 km
Inclination: 63.1 °
Period: 256.0 minutes
Semi major axis: 13354 km
RCS: 9.1305 m2 (large)
Launch date: May 26, 1993
Source: Commonwealth of Independent States (former USSR) (CIS)
Launch site: PLESETSK MISSILE AND SPACE COMPLEX (PKMTR)
aabbcc
Your satellite tracking list
Your tracking list is empty




NASA's NSSDC Master Catalog

Two Line Element Set (TLE):
1 22671U 93035A   19017.48392981  .00000046  00000-0 -12545-4 0  9992
2 22671  63.0934 237.9519 4858593 349.1757   3.3635  5.62579722282095
Source of the keplerian elements: AFSPC